Location: Unspecified
(40.7945°N, 0.0000°E)
Time: 18:05:57
(UTC+00:00)

Hubble Space Telescope - Pass Details

Date: 03 December 2020
Orbit: 536 x 539 km, 28.5° (Epoch: 15 January)

Event Time Altitude Azimuth Distance (km) Brightness Sun altitude
Rises 18:00:09 0° 219° (SW) 2,663 5.3 -16.1°
Reaches altitude 10° 18:04:08 10° 181° (S) 1,774 3.6 -16.9°
Maximum altitude 18:05:07 11° 167° (SSE) 1,728 3.4 -17.0°
Drops below altitude 10° 18:06:07 10° 153° (SSE) 1,775 3.3 -17.2°
Enters shadow 18:06:53 - 143° (SE) 1,874 3.3 -17.4°
